Time,TemperatureF,DewpointF,PressureIn,WindDirection,WindDirectionDegrees,WindSpeedMPH,WindSpeedGustMPH,Humidity,HourlyPrecipIn,Conditions,Clouds,dailyrainin,SoftwareType,DateUTC
2013-07-28 00:00:00,68.7,66.3,29.74,NNE,22,0.0,-999.0,92,-99.99,,,0.00,Acu-Link.com,2013-07-28 04:00:00,
2013-07-28 00:15:00,68.4,66.0,29.74,NE,45,0.0,-999.0,92,-99.99,,,0.00,Acu-Link.com,2013-07-28 04:15:00,
2013-07-28 00:30:00,68.4,66.0,29.74,ENE,67,0.0,-999.0,92,-99.99,,,0.00,Acu-Link.com,2013-07-28 04:30:00,
2013-07-28 00:45:00,68.5,66.1,29.74,ESE,112,0.0,-999.0,92,-99.99,,,0.00,Acu-Link.com,2013-07-28 04:45:00,
2013-07-28 01:00:00,68.4,66.0,29.74,WNW,292,0.0,-999.0,92,-99.99,,,0.00,Acu-Link.com,2013-07-28 05:00:00,
2013-07-28 01:16:00,68.4,66.0,29.73,NNW,337,0.0,-999.0,92,-99.99,,,0.00,Acu-Link.com,2013-07-28 05:16:00,
2013-07-28 01:31:00,68.4,66.0,29.73,NE,45,0.0,-999.0,92,-99.99,,,0.00,Acu-Link.com,2013-07-28 05:31:00,
2013-07-28 01:46:00,68.4,66.0,29.72,SE,135,0.0,-999.0,92,-99.99,,,0.00,Acu-Link.com,2013-07-28 05:46:00,
2013-07-28 02:16:00,68.2,65.8,29.73,SSE,157,0.0,-999.0,92,-99.99,,,0.00,Acu-Link.com,2013-07-28 06:16:00,
2013-07-28 02:46:00,68.4,66.6,29.72,North,0,0.0,-999.0,94,-99.99,,,0.00,Acu-Link.com,2013-07-28 06:46:00,
2013-07-28 03:16:00,68.4,66.6,29.73,ESE,112,0.0,-999.0,94,-99.99,,,0.00,Acu-Link.com,2013-07-28 07:16:00,
2013-07-28 03:32:00,68.4,66.6,29.73,West,270,0.0,-999.0,94,-99.99,,,0.00,Acu-Link.com,2013-07-28 07:32:00,
2013-07-28 03:47:00,68.2,66.4,29.72,ESE,112,0.0,-999.0,94,-99.99,,,0.00,Acu-Link.com,2013-07-28 07:47:00,
2013-07-28 04:02:00,68.0,66.2,29.73,East,90,0.0,-999.0,94,-99.99,,,0.00,Acu-Link.com,2013-07-28 08:02:00,
2013-07-28 04:17:00,67.5,65.7,29.72,SSE,157,0.0,-999.0,94,-99.99,,,0.00,Acu-Link.com,2013-07-28 08:17:00,
2013-07-28 04:32:00,67.3,65.5,29.73,West,270,0.0,-999.0,94,-99.99,,,0.00,Acu-Link.com,2013-07-28 08:32:00,
2013-07-28 04:47:00,67.1,65.3,29.72,SSW,202,0.0,-999.0,94,-99.99,,,0.00,Acu-Link.com,2013-07-28 08:47:00,
2013-07-28 05:03:00,67.3,65.8,29.72,NE,45,0.0,-999.0,95,-99.99,,,0.00,Acu-Link.com,2013-07-28 09:03:00,
2013-07-28 05:18:00,67.5,66.0,29.73,SE,135,0.0,-999.0,95,-99.99,,,0.00,Acu-Link.com,2013-07-28 09:18:00,
2013-07-28 05:33:00,67.3,65.8,29.74,WNW,292,0.0,-999.0,95,-99.99,,,0.00,Acu-Link.com,2013-07-28 09:33:00,
2013-07-28 05:48:00,67.3,65.8,29.75,WNW,292,0.0,-999.0,95,-99.99,,,0.00,Acu-Link.com,2013-07-28 09:48:00,
2013-07-28 06:03:00,67.5,66.0,29.75,ESE,112,0.0,-999.0,95,-99.99,,,0.00,Acu-Link.com,2013-07-28 10:03:00,
2013-07-28 06:18:00,67.5,66.0,29.75,NW,315,0.0,-999.0,95,-99.99,,,0.00,Acu-Link.com,2013-07-28 10:18:00,
2013-07-28 06:33:00,67.5,66.3,29.76,ENE,67,0.0,-999.0,96,-99.99,,,0.00,Acu-Link.com,2013-07-28 10:33:00,
2013-07-28 06:48:00,67.6,66.4,29.76,ENE,67,0.0,-999.0,96,-99.99,,,0.00,Acu-Link.com,2013-07-28 10:48:00,
2013-07-28 07:03:00,67.8,66.6,29.76,ESE,112,0.0,-999.0,96,-99.99,,,0.00,Acu-Link.com,2013-07-28 11:03:00,
2013-07-28 07:18:00,67.8,66.6,29.76,East,90,0.0,-999.0,96,-99.99,,,0.00,Acu-Link.com,2013-07-28 11:18:00,
2013-07-28 07:34:00,68.0,66.8,29.76,ESE,112,0.0,-999.0,96,-99.99,,,0.00,Acu-Link.com,2013-07-28 11:34:00,
2013-07-28 07:49:00,68.2,66.7,29.76,SSW,202,0.0,-999.0,95,-99.99,,,0.00,Acu-Link.com,2013-07-28 11:49:00,
2013-07-28 08:04:00,68.5,67.0,29.76,ESE,112,0.0,-999.0,95,-99.99,,,0.00,Acu-Link.com,2013-07-28 12:04:00,
2013-07-28 08:19:00,68.5,67.0,29.76,SSE,157,0.0,-999.0,95,-99.99,,,0.00,Acu-Link.com,2013-07-28 12:19:00,
2013-07-28 08:34:00,68.5,67.0,29.76,SSE,157,0.0,-999.0,95,-99.99,,,0.01,Acu-Link.com,2013-07-28 12:34:00,
2013-07-28 08:49:00,64.4,61.7,29.80,West,270,1.1,-999.0,91,-99.99,,,0.45,Acu-Link.com,2013-07-28 12:49:00,
2013-07-28 09:05:00,63.1,61.0,29.80,ESE,112,1.7,-999.0,93,-99.99,,,0.63,Acu-Link.com,2013-07-28 13:05:00,
2013-07-28 09:20:00,63.3,61.5,29.79,ENE,67,0.0,-999.0,94,-99.99,,,0.78,Acu-Link.com,2013-07-28 13:20:00,
2013-07-28 09:35:00,63.9,62.1,29.77,ENE,67,0.0,-999.0,94,-99.99,,,0.82,Acu-Link.com,2013-07-28 13:35:00,
2013-07-28 09:50:00,65.5,63.4,29.77,NNW,337,0.0,-999.0,93,-99.99,,,0.84,Acu-Link.com,2013-07-28 13:50:00,
2013-07-28 10:05:00,67.3,64.3,29.76,ESE,112,0.0,-999.0,90,-99.99,,,0.84,Acu-Link.com,2013-07-28 14:05:00,
2013-07-28 10:20:00,68.9,64.5,29.77,NE,45,0.0,-999.0,86,-99.99,,,0.84,Acu-Link.com,2013-07-28 14:20:00,
2013-07-28 10:35:00,70.5,62.6,29.77,SW,225,1.7,-999.0,76,-99.99,,,0.84,Acu-Link.com,2013-07-28 14:35:00,
2013-07-28 10:50:00,71.2,63.2,29.77,NW,315,2.2,-999.0,76,-99.99,,,0.84,Acu-Link.com,2013-07-28 14:50:00,
2013-07-28 11:05:00,69.1,63.4,29.78,ENE,67,2.2,-999.0,82,-99.99,,,0.84,Acu-Link.com,2013-07-28 15:05:00,
2013-07-28 11:21:00,70.5,62.6,29.77,East,90,0.0,-999.0,76,-99.99,,,0.84,Acu-Link.com,2013-07-28 15:21:00,
2013-07-28 11:36:00,72.3,63.5,29.78,West,270,2.2,-999.0,74,-99.99,,,0.84,Acu-Link.com,2013-07-28 15:36:00,
2013-07-28 11:51:00,72.3,62.8,29.78,NW,315,1.7,-999.0,72,-99.99,,,0.84,Acu-Link.com,2013-07-28 15:51:00,
2013-07-28 12:06:00,73.4,63.4,29.77,SW,225,2.7,-999.0,71,-99.99,,,0.84,Acu-Link.com,2013-07-28 16:06:00,
2013-07-28 12:21:00,75.2,63.5,29.78,SE,135,1.7,-999.0,67,-99.99,,,0.84,Acu-Link.com,2013-07-28 16:21:00,
2013-07-28 12:36:00,76.1,63.5,29.78,South,180,0.0,-999.0,65,-99.99,,,0.84,Acu-Link.com,2013-07-28 16:36:00,
2013-07-28 12:51:00,77.5,63.9,29.78,ESE,112,1.7,-999.0,63,-99.99,,,0.84,Acu-Link.com,2013-07-28 16:51:00,
2013-07-28 13:06:00,78.1,62.6,29.77,SSE,157,4.2,-999.0,59,-99.99,,,0.84,Acu-Link.com,2013-07-28 17:06:00,
2013-07-28 13:21:00,79.0,62.9,29.78,East,90,2.7,-999.0,58,-99.99,,,0.84,Acu-Link.com,2013-07-28 17:21:00,
2013-07-28 13:37:00,80.1,64.5,29.78,ESE,112,2.2,-999.0,59,-99.99,,,0.84,Acu-Link.com,2013-07-28 17:37:00,
2013-07-28 13:52:00,80.2,62.5,29.77,ESE,112,1.1,-999.0,55,-99.99,,,0.84,Acu-Link.com,2013-07-28 17:52:00,
2013-07-28 14:07:00,82.2,63.9,29.77,West,270,2.7,-999.0,54,-99.99,,,0.84,Acu-Link.com,2013-07-28 18:07:00,
2013-07-28 14:22:00,80.8,62.6,29.76,North,0,1.1,-999.0,54,-99.99,,,0.84,Acu-Link.com,2013-07-28 18:22:00,
2013-07-28 14:37:00,79.7,62.1,29.76,ESE,112,1.1,-999.0,55,-99.99,,,0.84,Acu-Link.com,2013-07-28 18:37:00,
2013-07-28 14:52:00,82.0,62.6,29.76,SE,135,2.7,-999.0,52,-99.99,,,0.84,Acu-Link.com,2013-07-28 18:52:00,
2013-07-28 15:07:00,83.7,62.5,29.75,WSW,247,2.2,-999.0,49,-99.99,,,0.84,Acu-Link.com,2013-07-28 19:07:00,
2013-07-28 15:22:00,80.2,59.9,29.74,ESE,112,1.7,-999.0,50,-99.99,,,0.84,Acu-Link.com,2013-07-28 19:22:00,
2013-07-28 15:37:00,83.3,60.3,29.74,ESE,112,2.2,-999.0,46,-99.99,,,0.84,Acu-Link.com,2013-07-28 19:37:00,
2013-07-28 15:52:00,83.3,59.7,29.75,South,180,3.7,-999.0,45,-99.99,,,0.84,Acu-Link.com,2013-07-28 19:52:00,
2013-07-28 16:08:00,83.3,57.8,29.75,SW,225,2.7,-999.0,42,-99.99,,,0.84,Acu-Link.com,2013-07-28 20:08:00,
2013-07-28 16:23:00,84.2,57.9,29.74,SE,135,2.7,-999.0,41,-99.99,,,0.84,Acu-Link.com,2013-07-28 20:23:00,
2013-07-28 16:38:00,88.0,58.4,29.74,West,270,1.1,-999.0,37,-99.99,,,0.84,Acu-Link.com,2013-07-28 20:38:00,
2013-07-28 16:53:00,87.8,57.5,29.74,WNW,292,1.7,-999.0,36,-99.99,,,0.84,Acu-Link.com,2013-07-28 20:53:00,
2013-07-28 17:08:00,87.1,56.9,29.74,South,180,3.2,-999.0,36,-99.99,,,0.84,Acu-Link.com,2013-07-28 21:08:00,
2013-07-28 17:23:00,85.3,56.8,29.74,SSW,202,3.7,-999.0,38,-99.99,,,0.84,Acu-Link.com,2013-07-28 21:23:00,
2013-07-28 17:38:00,86.0,56.7,29.75,SSE,157,2.7,-999.0,37,-99.99,,,0.84,Acu-Link.com,2013-07-28 21:38:00,
2013-07-28 17:53:00,85.6,55.6,29.75,ESE,112,3.7,-999.0,36,-99.99,,,0.84,Acu-Link.com,2013-07-28 21:53:00,
2013-07-28 18:08:00,84.9,55.7,29.75,SW,225,2.7,-999.0,37,-99.99,,,0.84,Acu-Link.com,2013-07-28 22:08:00,
2013-07-28 18:24:00,85.3,56.8,29.75,ESE,112,1.7,-999.0,38,-99.99,,,0.84,Acu-Link.com,2013-07-28 22:24:00,
2013-07-28 18:39:00,84.7,57.7,29.75,SSE,157,1.7,-999.0,40,-99.99,,,0.84,Acu-Link.com,2013-07-28 22:39:00,
2013-07-28 18:54:00,85.6,57.8,29.76,WNW,292,2.7,-999.0,39,-99.99,,,0.84,Acu-Link.com,2013-07-28 22:54:00,
2013-07-28 19:09:00,85.1,57.3,29.76,South,180,2.2,-999.0,39,-99.99,,,0.84,Acu-Link.com,2013-07-28 23:09:00,
2013-07-28 19:24:00,79.7,57.7,29.78,West,270,4.2,-999.0,47,-99.99,,,0.84,Acu-Link.com,2013-07-28 23:24:00,
2013-07-28 19:39:00,77.5,57.9,29.77,WNW,292,3.7,-999.0,51,-99.99,,,0.84,Acu-Link.com,2013-07-28 23:39:00,
2013-07-28 19:54:00,76.6,58.7,29.77,West,270,0.0,-999.0,54,-99.99,,,0.84,Acu-Link.com,2013-07-28 23:54:00,
2013-07-28 20:09:00,74.5,58.7,29.78,West,270,2.2,-999.0,58,-99.99,,,0.84,Acu-Link.com,2013-07-29 00:09:00,
2013-07-28 20:24:00,72.3,59.9,29.78,West,270,3.7,-999.0,65,-99.99,,,0.84,Acu-Link.com,2013-07-29 00:24:00,
2013-07-28 20:40:00,71.8,59.8,29.80,West,270,1.1,-999.0,66,-99.99,,,0.84,Acu-Link.com,2013-07-29 00:40:00,
2013-07-28 20:55:00,71.1,59.6,29.79,NNW,337,0.0,-999.0,67,-99.99,,,0.84,Acu-Link.com,2013-07-29 00:55:00,
2013-07-28 21:10:00,70.2,60.3,29.80,NW,315,0.0,-999.0,71,-99.99,,,0.84,Acu-Link.com,2013-07-29 01:10:00,
2013-07-28 21:25:00,69.4,59.6,29.81,West,270,0.0,-999.0,71,-99.99,,,0.84,Acu-Link.com,2013-07-29 01:25:00,
2013-07-28 21:55:00,68.0,59.0,29.83,NW,315,0.0,-999.0,73,-99.99,,,0.84,Acu-Link.com,2013-07-29 01:55:00,
2013-07-28 22:10:00,67.1,59.3,29.83,South,180,0.0,-999.0,76,-99.99,,,0.84,Acu-Link.com,2013-07-29 02:10:00,
2013-07-28 23:11:00,64.8,58.5,29.85,West,270,2.2,-999.0,80,-99.99,,,0.84,Acu-Link.com,2013-07-29 03:11:00,
2013-07-28 23:56:00,63.7,58.4,29.87,West,270,1.7,-999.0,83,-99.99,,,0.84,Acu-Link.com,2013-07-29 03:56:00,